| time (UTC) | temp F | wind direction | speed MPH | gust MPH | rain 1hr in | rain 24hr in | rain mn in | humidity % | barometer mb |
| 20260508140824 | 61 | 72 | 1.0 | 4.0 | 0.00 | 0.00 | 0.00 | 89 | 1016.0 |
| 20260508140649 | 61 | 74 | 1.0 | 4.0 | 0.00 | 0.00 | 0.00 | 89 | 1015.9 |
| 20260508135825 | 61 | 44 | 0.0 | 4.0 | 0.00 | 0.00 | 0.00 | 89 | 1015.8 |
| 20260508135325 | 61 | 106 | 0.0 | 0.0 | 0.00 | 0.00 | 0.00 | 89 | 1015.8 |
| 20260508134824 | 61 | 58 | 0.0 | 0.0 | 0.00 | 0.00 | 0.00 | 89 | 1015.8 |
| 20260508134321 | 61 | 58 | 0.0 | 0.0 | 0.00 | 0.00 | 0.00 | 89 | 1015.8 |
| 20260508133820 | 61 | 58 | 0.0 | 0.0 | 0.00 | 0.00 | 0.00 | 89 | 1015.8 |
| 20260508133320 | 61 | 58 | 1.0 | 3.0 | 0.00 | 0.00 | 0.00 | 89 | 1015.8 |
| 20260508132818 | 61 | 58 | 1.0 | 3.0 | 0.00 | 0.00 | 0.00 | 89 | 1015.7 |
| 20260508132319 | 61 | 58 | 1.0 | 3.0 | 0.00 | 0.00 | 0.00 | 89 | 1015.6 |
| 20260508131820 | 61 | 58 | 1.0 | 3.0 | 0.00 | 0.00 | 0.00 | 89 | 1015.5 |
| 20260508131319 | 61 | 58 | 1.0 | 3.0 | 0.00 | 0.00 | 0.00 | 89 | 1015.5 |
| 20260508131152 | 61 | 61 | 0.0 | 3.0 | 0.00 | 0.00 | 0.00 | 89 | 1015.5 |
| 20260508130712 | 61 | 78 | 0.0 | 2.0 | 0.00 | 0.00 | 0.00 | 89 | 1015.4 |
| 20260508125814 | 61 | 78 | 1.0 | 7.0 | 0.00 | 0.00 | 0.00 | 89 | 1015.5 |
| 20260508125315 | 61 | 78 | 1.0 | 7.0 | 0.00 | 0.00 | 0.00 | 89 | 1015.4 |
| 20260508124812 | 61 | 58 | 1.0 | 3.0 | 0.00 | 0.00 | 0.00 | 88 | 1015.4 |
| 20260508124313 | 61 | 181 | 2.0 | 6.0 | 0.00 | 0.00 | 0.00 | 88 | 1015.4 |
| 20260508123805 | 61 | 101 | 2.0 | 6.0 | 0.00 | 0.00 | 0.00 | 88 | 1015.3 |
| 20260508123315 | 61 | 104 | 2.0 | 4.0 | 0.00 | 0.00 | 0.00 | 88 | 1015.2 |
| 20260508122807 | 61 | 63 | 1.0 | 3.0 | 0.00 | 0.00 | 0.00 | 88 | 1015.2 |
| 20260508122308 | 61 | 63 | 1.0 | 3.0 | 0.00 | 0.00 | 0.00 | 88 | 1015.2 |
| 20260508121802 | 61 | 63 | 1.0 | 3.0 | 0.00 | 0.00 | 0.00 | 88 | 1015.2 |
| 20260508121302 | 61 | 52 | 1.0 | 4.0 | 0.00 | 0.00 | 0.00 | 88 | 1015.1 |
| 20260508120801 | 61 | 65 | 2.0 | 4.0 | 0.00 | 0.00 | 0.00 | 88 | 1015.1 |
| 20260508120311 | 61 | 69 | 2.0 | 4.0 | 0.00 | 0.00 | 0.00 | 88 | 1015.0 |
| 20260508115801 | 61 | 115 | 2.0 | 4.0 | 0.00 | 0.00 | 0.00 | 88 | 1015.1 |
| 20260508115306 | 61 | 103 | 1.0 | 4.0 | 0.00 | 0.00 | 0.00 | 88 | 1015.0 |
| 20260508114804 | 61 | 97 | 2.0 | 4.0 | 0.00 | 0.00 | 0.00 | 88 | 1015.0 |
| 20260508114301 | 61 | 121 | 2.0 | 6.0 | 0.00 | 0.00 | 0.00 | 88 | 1015.0 |
| 20260508113801 | 61 | 100 | 2.0 | 6.0 | 0.00 | 0.00 | 0.00 | 88 | 1015.0 |
| 20260508113301 | 61 | 113 | 2.0 | 4.0 | 0.00 | 0.00 | 0.00 | 88 | 1015.0 |
| 20260508112804 | 61 | 116 | 2.0 | 6.0 | 0.00 | 0.00 | 0.00 | 88 | 1015.0 |
| 20260508112628 | 61 | 109 | 2.0 | 6.0 | 0.00 | 0.00 | 0.00 | 88 | 1015.0 |
| 20260508111749 | 61 | 89 | 2.0 | 6.0 | 0.00 | 0.00 | 0.00 | 88 | 1014.9 |
| 20260508111705 | 61 | 111 | 1.0 | 4.0 | 0.00 | 0.00 | 0.00 | 89 | 1015.0 |
| 20260508111312 | 61 | 121 | 2.0 | 6.0 | 0.00 | 0.00 | 0.00 | 88 | 1014.9 |
| 20260508110243 | 61 | 111 | 1.0 | 6.0 | 0.00 | 0.00 | 0.00 | 89 | 1015.0 |
| 20260508105941 | 61 | 82 | 1.0 | 6.0 | 0.00 | 0.00 | 0.00 | 90 | 1014.9 |
| 20260508105855 | 61 | 101 | 1.0 | 6.0 | 0.00 | 0.00 | 0.00 | 89 | 1014.9 |
| 20260508104741 | 61 | 51 | 0.0 | 6.0 | 0.00 | 0.00 | 0.00 | 90 | 1014.9 |
| 20260508104245 | 61 | 114 | 0.0 | 0.0 | 0.00 | 0.00 | 0.00 | 90 | 1014.9 |
| 20260508104113 | 61 | 110 | 0.0 | 0.0 | 0.00 | 0.00 | 0.00 | 90 | 1014.9 |
| 20260508103242 | 61 | 253 | 0.0 | 0.0 | 0.00 | 0.00 | 0.00 | 90 | 1015.0 |
| 20260508102739 | 61 | 253 | 0.0 | 0.0 | 0.00 | 0.00 | 0.00 | 91 | 1014.9 |
| 20260508102707 | 61 | 253 | 0.0 | 0.0 | 0.00 | 0.00 | 0.00 | 91 | 1015.0 |
| 20260508101738 | 61 | 253 | 0.0 | 0.0 | 0.00 | 0.00 | 0.00 | 91 | 1015.0 |
| 20260508101236 | 61 | 253 | 0.0 | 0.0 | 0.00 | 0.00 | 0.00 | 91 | 1015.0 |
| 20260508100737 | 61 | 253 | 0.0 | 0.0 | 0.00 | 0.00 | 0.00 | 91 | 1015.0 |
| 20260508100236 | 61 | 253 | 0.0 | 0.0 | 0.00 | 0.00 | 0.00 | 91 | 1014.9 |
| 20260508095737 | 60 | 253 | 0.0 | 0.0 | 0.00 | 0.00 | 0.00 | 91 | 1015.0 |
| 20260508095248 | 60 | 253 | 0.0 | 0.0 | 0.00 | 0.00 | 0.00 | 91 | 1015.0 |
| 20260508095043 | 60 | 253 | 0.0 | 0.0 | 0.00 | 0.00 | 0.00 | 91 | 1015.0 |
| 20260508094235 | 60 | 253 | 0.0 | 0.0 | 0.00 | 0.00 | 0.00 | 92 | 1015.1 |
| 20260508093731 | 60 | 253 | 0.0 | 0.0 | 0.00 | 0.00 | 0.00 | 92 | 1015.2 |
| 20260508093232 | 60 | 253 | 0.0 | 0.0 | 0.00 | 0.00 | 0.00 | 92 | 1015.2 |
| 20260508092731 | 60 | 253 | 0.0 | 0.0 | 0.00 | 0.00 | 0.00 | 92 | 1015.2 |
| 20260508092229 | 60 | 253 | 0.0 | 0.0 | 0.00 | 0.00 | 0.00 | 92 | 1015.2 |
| 20260508092104 | 60 | 253 | 0.0 | 0.0 | 0.00 | 0.00 | 0.00 | 92 | 1015.2 |
| 20260508091230 | 60 | 253 | 0.0 | 0.0 | 0.00 | 0.00 | 0.00 | 92 | 1015.2 |
| 20260508090731 | 60 | 253 | 0.0 | 0.0 | 0.00 | 0.00 | 0.00 | 92 | 1015.3 |
| 20260508090231 | 60 | 253 | 0.0 | 0.0 | 0.00 | 0.00 | 0.00 | 92 | 1015.4 |
| 20260508085729 | 60 | 253 | 0.0 | 0.0 | 0.00 | 0.00 | 0.00 | 92 | 1015.4 |
| 20260508085225 | 60 | 253 | 0.0 | 0.0 | 0.00 | 0.00 | 0.00 | 92 | 1015.4 |
| 20260508084725 | 60 | 253 | 0.0 | 0.0 | 0.00 | 0.00 | 0.00 | 92 | 1015.3 |
| 20260508084226 | 60 | 253 | 0.0 | 0.0 | 0.00 | 0.00 | 0.00 | 92 | 1015.4 |
| 20260508083727 | 60 | 253 | 0.0 | 0.0 | 0.00 | 0.00 | 0.00 | 92 | 1015.4 |
| 20260508083545 | 60 | 253 | 0.0 | 2.0 | 0.00 | 0.00 | 0.00 | 92 | 1015.4 |
| 20260508082725 | 60 | 253 | 1.0 | 2.0 | 0.00 | 0.00 | 0.00 | 91 | 1015.4 |
| 20260508082538 | 60 | 253 | 1.0 | 3.0 | 0.00 | 0.00 | 0.00 | 91 | 1015.5 |
| 20260508081721 | 60 | 253 | 1.0 | 3.0 | 0.00 | 0.00 | 0.00 | 91 | 1015.6 |
| 20260508081223 | 60 | 253 | 1.0 | 3.0 | 0.00 | 0.00 | 0.00 | 91 | 1015.6 |
| 20260508080720 | 60 | 253 | 1.0 | 3.0 | 0.00 | 0.00 | 0.00 | 91 | 1015.6 |
| 20260508080220 | 60 | 253 | 1.0 | 3.0 | 0.00 | 0.00 | 0.00 | 91 | 1015.7 |
| 20260508075720 | 60 | 253 | 1.0 | 3.0 | 0.00 | 0.00 | 0.00 | 91 | 1015.8 |
| 20260508075219 | 61 | 249 | 1.0 | 4.0 | 0.00 | 0.00 | 0.00 | 91 | 1015.8 |
| 20260508074719 | 61 | 273 | 1.0 | 4.0 | 0.00 | 0.00 | 0.00 | 91 | 1015.7 |
| 20260508074219 | 61 | 244 | 1.0 | 4.0 | 0.00 | 0.00 | 0.00 | 91 | 1015.6 |
| 20260508073719 | 61 | 0 | 1.0 | 4.0 | 0.00 | 0.00 | 0.00 | 91 | 1015.7 |
| 20260508073604 | 61 | 285 | 2.0 | 4.0 | 0.00 | 0.00 | 0.00 | 91 | 1015.8 |
| 20260508072719 | 61 | 294 | 1.0 | 4.0 | 0.00 | 0.00 | 0.00 | 90 | 1015.7 |
| 20260508072221 | 61 | 242 | 1.0 | 3.0 | 0.00 | 0.00 | 0.00 | 90 | 1015.7 |
| 20260508072043 | 61 | 242 | 2.0 | 3.0 | 0.00 | 0.00 | 0.00 | 90 | 1015.9 |
| 20260508071219 | 61 | 242 | 1.0 | 3.0 | 0.00 | 0.00 | 0.00 | 90 | 1015.7 |
| 20260508071034 | 61 | 0 | 2.0 | 4.0 | 0.00 | 0.00 | 0.00 | 90 | 1015.7 |
| 20260508070849 | 61 | 215 | 1.0 | 4.0 | 0.00 | 0.00 | 0.00 | 90 | 1015.7 |
| 20260508065717 | 61 | 219 | 1.0 | 3.0 | 0.00 | 0.00 | 0.00 | 90 | 1015.6 |
| 20260508065215 | 61 | 255 | 0.0 | 3.0 | 0.00 | 0.00 | 0.00 | 90 | 1015.6 |
| 20260508064717 | 61 | 266 | 1.0 | 3.0 | 0.00 | 0.00 | 0.00 | 90 | 1015.7 |
| 20260508064212 | 61 | 256 | 1.0 | 2.0 | 0.00 | 0.00 | 0.00 | 90 | 1015.7 |
| 20260508063713 | 61 | 256 | 1.0 | 3.0 | 0.00 | 0.00 | 0.00 | 90 | 1015.6 |
| 20260508063210 | 61 | 211 | 2.0 | 4.0 | 0.00 | 0.00 | 0.00 | 90 | 1015.6 |
| 20260508062712 | 61 | 225 | 2.0 | 4.0 | 0.00 | 0.00 | 0.00 | 90 | 1015.6 |
| 20260508062613 | 61 | 214 | 2.0 | 4.0 | 0.00 | 0.00 | 0.00 | 90 | 1015.6 |
| 20260508061705 | 61 | 209 | 1.0 | 4.0 | 0.00 | 0.00 | 0.00 | 90 | 1015.6 |
| 20260508061205 | 62 | 230 | 2.0 | 5.0 | 0.00 | 0.00 | 0.00 | 90 | 1015.5 |
| 20260508060703 | 62 | 201 | 2.0 | 5.0 | 0.00 | 0.00 | 0.00 | 90 | 1015.5 |
| 20260508060204 | 62 | 234 | 1.0 | 4.0 | 0.00 | 0.00 | 0.00 | 90 | 1015.6 |
| 20260508055706 | 62 | 255 | 1.0 | 3.0 | 0.00 | 0.00 | 0.00 | 90 | 1015.5 |
| 20260508055646 | 62 | 206 | 1.0 | 4.0 | 0.00 | 0.00 | 0.00 | 90 | 1015.5 |
| 20260508055641 | 62 | 207 | 1.0 | 3.0 | 0.00 | 0.00 | 0.00 | 90 | 1015.6 |
| 20260508055235 | 62 | 255 | 1.0 | 4.0 | 0.00 | 0.00 | 0.00 | 90 | 1015.5 |
| 20260508053703 | 62 | 207 | 1.0 | 3.0 | 0.00 | 0.00 | 0.00 | 90 | 1015.6 |
| 20260508053202 | 62 | 207 | 0.0 | 3.0 | 0.00 | 0.00 | 0.00 | 90 | 1015.5 |
| 20260508052704 | 62 | 207 | 1.0 | 4.0 | 0.00 | 0.00 | 0.00 | 90 | 1015.5 |
| 20260508052539 | 62 | 207 | 1.0 | 4.0 | 0.00 | 0.00 | 0.00 | 90 | 1015.5 |
| 20260508051719 | 62 | 237 | 1.0 | 3.0 | 0.00 | 0.00 | 0.00 | 90 | 1015.5 |
| 20260508051203 | 62 | 261 | 1.0 | 4.0 | 0.00 | 0.00 | 0.00 | 91 | 1015.6 |
| 20260508050720 | 62 | 159 | 1.0 | 4.0 | 0.00 | 0.00 | 0.00 | 91 | 1015.6 |
| 20260508050203 | 61 | 220 | 1.0 | 3.0 | 0.00 | 0.00 | 0.00 | 91 | 1015.5 |
| 20260508045720 | 61 | 220 | 1.0 | 3.0 | 0.00 | 0.00 | 0.00 | 91 | 1015.4 |
| 20260508045203 | 61 | 191 | 1.0 | 3.0 | 0.00 | 0.00 | 0.00 | 91 | 1015.4 |
| 20260508044703 | 61 | 219 | 1.0 | 3.0 | 0.00 | 0.00 | 0.00 | 92 | 1015.3 |
| 20260508044621 | 61 | 252 | 1.0 | 3.0 | 0.00 | 0.00 | 0.00 | 92 | 1015.3 |
| 20260508043709 | 61 | 200 | 1.0 | 3.0 | 0.00 | 0.00 | 0.00 | 92 | 1015.3 |
| 20260508043212 | 61 | 200 | 1.0 | 3.0 | 0.00 | 0.00 | 0.00 | 92 | 1015.2 |
| 20260508042706 | 60 | 0 | 1.0 | 3.0 | 0.00 | 0.00 | 0.00 | 92 | 1015.1 |
| 20260508042202 | 60 | 248 | 1.0 | 3.0 | 0.00 | 0.00 | 0.00 | 92 | 1015.0 |
| 20260508041703 | 60 | 248 | 1.0 | 4.0 | 0.00 | 0.00 | 0.00 | 92 | 1015.0 |
| 20260508041214 | 60 | 242 | 1.0 | 4.0 | 0.00 | 0.00 | 0.00 | 92 | 1014.9 |
| 20260508041125 | 60 | 252 | 2.0 | 4.0 | 0.00 | 0.00 | 0.00 | 92 | 1014.8 |
| 20260508040202 | 60 | 262 | 1.0 | 4.0 | 0.00 | 0.00 | 0.00 | 92 | 1014.7 |
| 20260508040005 | 60 | 0 | 1.0 | 3.0 | 0.00 | 0.00 | 0.00 | 92 | 1014.7 |
| 20260508035202 | 60 | 280 | 1.0 | 3.0 | 0.00 | 0.00 | 0.00 | 91 | 1014.6 |
| 20260508034702 | 60 | 257 | 1.0 | 3.0 | 0.00 | 0.00 | 0.00 | 91 | 1014.6 |
| 20260508034204 | 60 | 250 | 2.0 | 6.0 | 0.00 | 0.00 | 0.00 | 91 | 1014.5 |
| 20260508034024 | 60 | 249 | 2.0 | 6.0 | 0.00 | 0.00 | 0.00 | 90 | 1014.5 |
| 20260508033544 | 60 | 0 | 2.0 | 4.0 | 0.00 | 0.00 | 0.00 | 90 | 1014.3 |
| 20260508032702 | 60 | 273 | 2.0 | 4.0 | 0.00 | 0.00 | 0.00 | 89 | 1014.4 |
| 20260508032202 | 60 | 217 | 2.0 | 4.0 | 0.00 | 0.00 | 0.00 | 90 | 1014.2 |
| 20260508031707 | 60 | 267 | 2.0 | 5.0 | 0.00 | 0.00 | 0.00 | 89 | 1014.2 |
| 20260508031202 | 61 | 285 | 2.0 | 5.0 | 0.00 | 0.00 | 0.00 | 89 | 1014.2 |
| 20260508030701 | 61 | 271 | 2.0 | 7.0 | 0.00 | 0.00 | 0.00 | 88 | 1014.0 |
| 20260508030203 | 61 | 257 | 2.0 | 7.0 | 0.00 | 0.00 | 0.00 | 88 | 1014.1 |
| 20260508025703 | 61 | 259 | 3.0 | 6.0 | 0.00 | 0.00 | 0.00 | 87 | 1014.1 |
| 20260508025201 | 62 | 253 | 3.0 | 7.0 | 0.00 | 0.00 | 0.00 | 86 | 1013.9 |
| 20260508024701 | 62 | 236 | 2.0 | 10.0 | 0.00 | 0.00 | 0.00 | 86 | 1013.9 |
| 20260508024201 | 62 | 0 | 2.0 | 10.0 | 0.00 | 0.00 | 0.00 | 85 | 1013.8 |
| 20260508023701 | 62 | 203 | 3.0 | 7.0 | 0.00 | 0.00 | 0.00 | 85 | 1013.8 |
| 20260508023201 | 62 | 0 | 3.0 | 7.0 | 0.00 | 0.00 | 0.00 | 85 | 1013.6 |
| 20260508023044 | 63 | 0 | 3.0 | 7.0 | 0.00 | 0.00 | 0.00 | 84 | 1013.7 |
| 20260508022201 | 63 | 257 | 3.0 | 8.0 | 0.00 | 0.00 | 0.00 | 84 | 1013.7 |
| 20260508021700 | 63 | 232 | 3.0 | 8.0 | 0.00 | 0.00 | 0.00 | 84 | 1013.7 |
| 20260508021156 | 63 | 236 | 3.0 | 8.0 | 0.00 | 0.00 | 0.00 | 84 | 1013.7 |
| 20260508020655 | 63 | 0 | 3.0 | 8.0 | 0.00 | 0.00 | 0.00 | 84 | 1013.7 |
| 20260508020156 | 64 | 187 | 3.0 | 9.0 | 0.00 | 0.00 | 0.00 | 84 | 1013.6 |
| 20260508015657 | 64 | 263 | 3.0 | 9.0 | 0.00 | 0.00 | 0.00 | 83 | 1013.6 |
| 20260508015155 | 64 | 0 | 3.0 | 9.0 | 0.00 | 0.00 | 0.00 | 83 | 1013.5 |
| 20260508014658 | 64 | 173 | 4.0 | 9.0 | 0.00 | 0.00 | 0.00 | 83 | 1013.5 |
| 20260508014153 | 64 | 0 | 5.0 | 11.0 | 0.00 | 0.00 | 0.00 | 82 | 1013.5 |
| 20260508013659 | 64 | 248 | 5.0 | 11.0 | 0.00 | 0.00 | 0.00 | 82 | 1013.5 |
| 20260508013310 | 66 | 205 | 3.0 | 8.0 | 0.00 | 0.00 | 0.00 | 81 | 1013.4 |
| 20260508013304 | 66 | 0 | 3.0 | 8.0 | 0.00 | 0.00 | 0.00 | 81 | 1013.4 |
| 20260508013226 | 65 | 205 | 4.0 | 9.0 | 0.00 | 0.00 | 0.00 | 81 | 1013.5 |
| 20260508011655 | 65 | 270 | 4.0 | 10.0 | 0.00 | 0.00 | 0.00 | 81 | 1013.6 |
| 20260508011529 | 65 | 208 | 5.0 | 11.0 | 0.00 | 0.00 | 0.00 | 80 | 1013.6 |
| 20260508010654 | 65 | 0 | 5.0 | 12.0 | 0.00 | 0.00 | 0.00 | 80 | 1013.5 |
| 20260508010154 | 66 | 267 | 4.0 | 12.0 | 0.00 | 0.00 | 0.00 | 80 | 1013.6 |
| 20260508005656 | 66 | 0 | 4.0 | 8.0 | 0.00 | 0.00 | 0.00 | 79 | 1013.5 |
| 20260508005149 | 67 | 0 | 4.0 | 8.0 | 0.00 | 0.00 | 0.00 | 78 | 1013.5 |
| 20260508005126 | 67 | 0 | 4.0 | 11.0 | 0.00 | 0.00 | 0.00 | 78 | 1013.6 |
| 20260508004148 | 66 | 221 | 4.0 | 11.0 | 0.00 | 0.00 | 0.00 | 79 | 1013.6 |
| 20260508003646 | 67 | 274 | 4.0 | 10.0 | 0.00 | 0.00 | 0.00 | 78 | 1013.6 |
| 20260508003144 | 67 | 192 | 5.0 | 10.0 | 0.00 | 0.00 | 0.00 | 78 | 1013.6 |
| 20260508002643 | 67 | 0 | 4.0 | 10.0 | 0.00 | 0.00 | 0.00 | 77 | 1013.5 |
| 20260508002146 | 68 | 212 | 4.0 | 8.0 | 0.00 | 0.00 | 0.00 | 77 | 1013.5 |
| 20260508001643 | 68 | 0 | 4.0 | 9.0 | 0.00 | 0.00 | 0.00 | 77 | 1013.5 |
| 20260508001144 | 68 | 0 | 4.0 | 9.0 | 0.00 | 0.00 | 0.00 | 77 | 1013.4 |
| 20260508000639 | 68 | 213 | 4.0 | 11.0 | 0.00 | 0.00 | 0.00 | 77 | 1013.4 |
| 20260508000143 | 68 | 200 | 4.0 | 11.0 | 0.00 | 0.00 | 0.00 | 78 | 1013.5 |
| 20260507235637 | 68 | 191 | 4.0 | 9.0 | 0.00 | 0.00 | 0.00 | 78 | 1013.6 |
| 20260507235146 | 68 | 0 | 4.0 | 9.0 | 0.00 | 0.00 | 0.00 | 79 | 1013.5 |
| 20260507235042 | 68 | 0 | 4.0 | 9.0 | 0.00 | 0.00 | 0.00 | 79 | 1013.5 |
| 20260507234140 | 68 | 237 | 4.0 | 11.0 | 0.00 | 0.00 | 0.00 | 79 | 1013.5 |
| 20260507233634 | 67 | 0 | 4.0 | 11.0 | 0.00 | 0.00 | 0.00 | 78 | 1013.7 |
| 20260507233131 | 67 | 221 | 4.0 | 11.0 | 0.00 | 0.00 | 0.00 | 79 | 1013.6 |
| 20260507232631 | 68 | 233 | 5.0 | 11.0 | 0.00 | 0.00 | 0.00 | 78 | 1013.7 |
| 20260507232344 | 68 | 252 | 3.0 | 9.0 | 0.00 | 0.00 | 0.00 | 79 | 1013.7 |
| 20260507232242 | 68 | 207 | 4.0 | 8.0 | 0.00 | 0.00 | 0.00 | 78 | 1013.7 |
| 20260507231132 | 68 | 261 | 4.0 | 9.0 | 0.00 | 0.00 | 0.00 | 79 | 1013.7 |
| 20260507230632 | 68 | 0 | 5.0 | 10.0 | 0.00 | 0.00 | 0.00 | 79 | 1013.8 |
| 20260507230516 | 68 | 0 | 4.0 | 10.0 | 0.00 | 0.00 | 0.00 | 78 | 1013.7 |
| 20260507225631 | 69 | 0 | 5.0 | 10.0 | 0.00 | 0.00 | 0.00 | 78 | 1013.8 |
| 20260507225130 | 69 | 261 | 5.0 | 11.0 | 0.00 | 0.00 | 0.00 | 78 | 1013.9 |
| 20260507224629 | 69 | 221 | 5.0 | 11.0 | 0.00 | 0.00 | 0.00 | 78 | 1013.8 |
| 20260507224134 | 69 | 250 | 5.0 | 11.0 | 0.00 | 0.00 | 0.00 | 77 | 1013.8 |
| 20260507224030 | 69 | 257 | 5.0 | 10.0 | 0.00 | 0.00 | 0.00 | 78 | 1013.9 |
| 20260507223135 | 69 | 0 | 5.0 | 12.0 | 0.00 | 0.00 | 0.00 | 78 | 1013.9 |
| 20260507222629 | 69 | 0 | 6.0 | 12.0 | 0.00 | 0.00 | 0.00 | 78 | 1013.9 |
| 20260507222139 | 69 | 0 | 6.0 | 12.0 | 0.00 | 0.00 | 0.00 | 77 | 1014.0 |
| 20260507221631 | 69 | 170 | 6.0 | 12.0 | 0.00 | 0.00 | 0.00 | 76 | 1014.0 |
| 20260507221130 | 69 | 0 | 5.0 | 13.0 | 0.00 | 0.00 | 0.00 | 76 | 1014.0 |
| 20260507220630 | 69 | 0 | 5.0 | 13.0 | 0.00 | 0.00 | 0.00 | 76 | 1014.1 |
| 20260507220130 | 69 | 0 | 6.0 | 14.0 | 0.00 | 0.00 | 0.00 | 75 | 1014.1 |
| 20260507215630 | 69 | 0 | 5.0 | 14.0 | 0.00 | 0.00 | 0.00 | 75 | 1014.3 |
| 20260507215129 | 69 | 227 | 4.0 | 11.0 | 0.00 | 0.00 | 0.00 | 75 | 1014.3 |
| 20260507214633 | 69 | 233 | 5.0 | 13.0 | 0.00 | 0.00 | 0.00 | 76 | 1014.4 |
| 20260507214504 | 69 | 205 | 5.0 | 13.0 | 0.00 | 0.00 | 0.00 | 76 | 1014.6 |
| 20260507213631 | 69 | 207 | 5.0 | 11.0 | 0.00 | 0.00 | 0.00 | 75 | 1014.5 |
| 20260507213140 | 68 | 242 | 6.0 | 11.0 | 0.00 | 0.00 | 0.00 | 77 | 1014.5 |
| 20260507212631 | 68 | 225 | 6.0 | 12.0 | 0.00 | 0.00 | 0.00 | 77 | 1014.5 |
| 20260507212122 | 68 | 0 | 6.0 | 12.0 | 0.00 | 0.00 | 0.00 | 76 | 1014.6 |
| 20260507211626 | 68 | 236 | 5.0 | 11.0 | 0.00 | 0.00 | 0.00 | 77 | 1014.7 |
| 20260507211124 | 68 | 213 | 6.0 | 11.0 | 0.00 | 0.00 | 0.00 | 77 | 1014.7 |
| 20260507210625 | 68 | 222 | 6.0 | 13.0 | 0.00 | 0.00 | 0.00 | 77 | 1014.8 |
| 20260507210123 | 68 | 173 | 6.0 | 13.0 | 0.00 | 0.00 | 0.00 | 76 | 1014.8 |
| 20260507205624 | 68 | 0 | 5.0 | 11.0 | 0.00 | 0.00 | 0.00 | 76 | 1014.8 |
| 20260507205131 | 68 | 211 | 5.0 | 12.0 | 0.00 | 0.00 | 0.00 | 77 | 1014.8 |
| 20260507204622 | 69 | 269 | 5.0 | 12.0 | 0.00 | 0.00 | 0.00 | 76 | 1015.0 |
| 20260507204123 | 69 | 0 | 5.0 | 10.0 | 0.00 | 0.00 | 0.00 | 77 | 1015.0 |
| 20260507203621 | 68 | 257 | 5.0 | 11.0 | 0.00 | 0.00 | 0.00 | 78 | 1015.0 |
| 20260507203451 | 68 | 233 | 5.0 | 12.0 | 0.00 | 0.00 | 0.00 | 77 | 1015.1 |
| 20260507203315 | 68 | 226 | 5.0 | 12.0 | 0.00 | 0.00 | 0.00 | 77 | 1015.1 |
| 20260507202123 | 69 | 215 | 4.0 | 11.0 | 0.00 | 0.00 | 0.00 | 75 | 1015.0 |
| 20260507202010 | 69 | 0 | 5.0 | 11.0 | 0.00 | 0.00 | 0.00 | 76 | 1015.1 |
| 20260507201116 | 69 | 266 | 5.0 | 11.0 | 0.00 | 0.00 | 0.00 | 76 | 1015.2 |
| 20260507200619 | 69 | 209 | 4.0 | 10.0 | 0.00 | 0.00 | 0.00 | 76 | 1015.2 |
| 20260507200403 | 68 | 215 | 5.0 | 11.0 | 0.00 | 0.00 | 0.00 | 76 | 1015.3 |
| 20260507200238 | 68 | 236 | 5.0 | 11.0 | 0.00 | 0.00 | 0.00 | 77 | 1015.2 |
| 20260507195115 | 68 | 284 | 5.0 | 10.0 | 0.00 | 0.00 | 0.00 | 76 | 1015.2 |
| 20260507194616 | 68 | 221 | 5.0 | 10.0 | 0.00 | 0.00 | 0.00 | 76 | 1015.2 |
| 20260507194116 | 68 | 224 | 4.0 | 10.0 | 0.00 | 0.00 | 0.00 | 77 | 1015.4 |
| 20260507193615 | 68 | 283 | 5.0 | 10.0 | 0.00 | 0.00 | 0.00 | 77 | 1015.4 |
| 20260507193119 | 68 | 0 | 5.0 | 10.0 | 0.00 | 0.00 | 0.00 | 77 | 1015.4 |
| 20260507192615 | 68 | 219 | 4.0 | 9.0 | 0.00 | 0.00 | 0.00 | 77 | 1015.4 |
| 20260507192507 | 68 | 220 | 4.0 | 9.0 | 0.00 | 0.00 | 0.00 | 77 | 1015.6 |
| 20260507191616 | 68 | 252 | 4.0 | 9.0 | 0.00 | 0.00 | 0.00 | 77 | 1015.6 |
| 20260507191116 | 68 | 207 | 4.0 | 9.0 | 0.00 | 0.00 | 0.00 | 77 | 1015.5 |
| 20260507190616 | 68 | 249 | 4.0 | 9.0 | 0.00 | 0.00 | 0.00 | 77 | 1015.4 |
| 20260507190117 | 68 | 0 | 4.0 | 9.0 | 0.00 | 0.00 | 0.00 | 77 | 1015.6 |
| 20260507185616 | 68 | 252 | 4.0 | 10.0 | 0.00 | 0.00 | 0.00 | 77 | 1015.5 |
| 20260507185429 | 68 | 242 | 4.0 | 10.0 | 0.00 | 0.00 | 0.00 | 77 | 1015.5 |
| 20260507184614 | 68 | 0 | 4.0 | 9.0 | 0.00 | 0.00 | 0.00 | 77 | 1015.7 |
| 20260507184115 | 68 | 225 | 4.0 | 8.0 | 0.00 | 0.00 | 0.00 | 77 | 1015.7 |
| 20260507183620 | 68 | 246 | 4.0 | 9.0 | 0.00 | 0.00 | 0.00 | 77 | 1015.7 |
| 20260507183117 | 68 | 232 | 4.0 | 9.0 | 0.00 | 0.00 | 0.00 | 77 | 1015.8 |
| 20260507182614 | 68 | 209 | 4.0 | 9.0 | 0.00 | 0.00 | 0.00 | 77 | 1015.8 |
| 20260507182116 | 68 | 286 | 4.0 | 8.0 | 0.00 | 0.00 | 0.00 | 78 | 1015.8 |
| 20260507181615 | 68 | 270 | 3.0 | 8.0 | 0.00 | 0.00 | 0.00 | 77 | 1015.8 |
| 20260507181115 | 68 | 194 | 3.0 | 10.0 | 0.00 | 0.00 | 0.00 | 77 | 1015.8 |
| 20260507180616 | 67 | 237 | 3.0 | 10.0 | 0.00 | 0.00 | 0.00 | 78 | 1015.9 |
| 20260507180508 | 67 | 215 | 4.0 | 10.0 | 0.00 | 0.00 | 0.00 | 78 | 1015.9 |
| 20260507175613 | 67 | 232 | 3.0 | 8.0 | 0.00 | 0.00 | 0.00 | 79 | 1015.9 |
| 20260507175427 | 67 | 242 | 3.0 | 7.0 | 0.00 | 0.00 | 0.00 | 79 | 1015.9 |
| 20260507174610 | 67 | 223 | 3.0 | 7.0 | 0.00 | 0.00 | 0.00 | 79 | 1016.0 |
| 20260507174110 | 67 | 0 | 3.0 | 7.0 | 0.00 | 0.00 | 0.00 | 79 | 1016.0 |
| 20260507173616 | 66 | 248 | 3.0 | 9.0 | 0.00 | 0.00 | 0.00 | 80 | 1016.1 |
| 20260507173414 | 66 | 281 | 3.0 | 7.0 | 0.00 | 0.00 | 0.00 | 80 | 1016.1 |
| 20260507173226 | 66 | 254 | 3.0 | 9.0 | 0.00 | 0.00 | 0.00 | 79 | 1016.1 |
| 20260507172106 | 66 | 251 | 3.0 | 7.0 | 0.00 | 0.00 | 0.00 | 80 | 1016.0 |
| 20260507171609 | 66 | 0 | 4.0 | 8.0 | 0.00 | 0.00 | 0.00 | 80 | 1016.1 |
| 20260507171449 | 66 | 275 | 4.0 | 8.0 | 0.00 | 0.00 | 0.00 | 80 | 1016.2 |
| 20260507170833 | 66 | 210 | 3.0 | 8.0 | 0.00 | 0.00 | 0.00 | 81 | 1016.1 |
| 20260507170106 | 66 | 204 | 3.0 | 8.0 | 0.00 | 0.00 | 0.00 | 80 | 1016.1 |
| 20260507165605 | 66 | 283 | 3.0 | 7.0 | 0.00 | 0.00 | 0.00 | 80 | 1016.0 |
| 20260507165103 | 66 | 0 | 3.0 | 7.0 | 0.00 | 0.00 | 0.00 | 80 | 1016.1 |
| 20260507164605 | 66 | 184 | 3.0 | 7.0 | 0.00 | 0.00 | 0.00 | 80 | 1016.1 |
| 20260507164105 | 66 | 0 | 2.0 | 6.0 | 0.00 | 0.00 | 0.00 | 80 | 1016.1 |
| 20260507164101 | 65 | 205 | 2.0 | 6.0 | 0.00 | 0.00 | 0.00 | 82 | 1016.2 |
| 20260507164054 | 66 | 190 | 2.0 | 6.0 | 0.00 | 0.00 | 0.00 | 81 | 1016.1 |
| 20260507163236 | 65 | 192 | 2.0 | 6.0 | 0.00 | 0.00 | 0.00 | 82 | 1016.1 |
| 20260507163147 | 66 | 281 | 2.0 | 6.0 | 0.00 | 0.00 | 0.00 | 80 | 1016.1 |
| 20260507161612 | 65 | 285 | 2.0 | 4.0 | 0.00 | 0.00 | 0.00 | 83 | 1016.2 |
| 20260507161505 | 64 | 277 | 2.0 | 4.0 | 0.00 | 0.00 | 0.00 | 83 | 1016.1 |
| 20260507160605 | 64 | 263 | 2.0 | 4.0 | 0.00 | 0.00 | 0.00 | 84 | 1016.2 |
| 20260507155604 | 64 | 196 | 2.0 | 5.0 | 0.00 | 0.00 | 0.00 | 85 | 1016.3 |
| 20260507155058 | 64 | 225 | 1.0 | 3.0 | 0.00 | 0.00 | 0.00 | 85 | 1016.3 |
| 20260507154948 | 64 | 287 | 1.0 | 4.0 | 0.00 | 0.00 | 0.00 | 86 | 1016.3 |
| 20260507154101 | 63 | 207 | 2.0 | 4.0 | 0.00 | 0.00 | 0.00 | 86 | 1016.3 |
| 20260507153600 | 63 | 180 | 2.0 | 4.0 | 0.00 | 0.00 | 0.00 | 87 | 1016.4 |
| 20260507153511 | 63 | 198 | 2.0 | 4.0 | 0.00 | 0.00 | 0.00 | 87 | 1016.3 |
| 20260507152915 | 62 | 219 | 1.0 | 5.0 | 0.00 | 0.00 | 0.00 | 88 | 1016.3 |
| 20260507152310 | 62 | 217 | 2.0 | 5.0 | 0.00 | 0.00 | 0.00 | 89 | 1016.4 |
| 20260507152216 | 62 | 180 | 2.0 | 5.0 | 0.00 | 0.00 | 0.00 | 88 | 1016.3 |
| 20260507151051 | 62 | 236 | 2.0 | 6.0 | 0.00 | 0.00 | 0.00 | 90 | 1016.3 |
| 20260507150558 | 61 | 191 | 2.0 | 6.0 | 0.00 | 0.00 | 0.00 | 91 | 1016.3 |
| 20260507150517 | 61 | 0 | 1.0 | 3.0 | 0.00 | 0.00 | 0.00 | 92 | 1016.3 |
| 20260507145558 | 61 | 226 | 1.0 | 3.0 | 0.00 | 0.00 | 0.00 | 92 | 1016.2 |
| 20260507145052 | 61 | 252 | 1.0 | 4.0 | 0.00 | 0.00 | 0.00 | 93 | 1016.2 |
| 20260507144551 | 60 | 264 | 1.0 | 4.0 | 0.00 | 0.00 | 0.00 | 94 | 1016.3 |
| 20260507144048 | 60 | 265 | 2.0 | 4.0 | 0.00 | 0.00 | 0.00 | 94 | 1016.2 |
| 20260507143551 | 60 | 210 | 1.0 | 4.0 | 0.00 | 0.00 | 0.00 | 95 | 1016.2 |
| 20260507143045 | 59 | 226 | 0.0 | 2.0 | 0.00 | 0.00 | 0.00 | 95 | 1016.1 |
| 20260507142545 | 59 | 213 | 0.0 | 0.0 | 0.00 | 0.00 | 0.00 | 95 | 1016.1 |
| 20260507142044 | 59 | 281 | 0.0 | 0.0 | 0.00 | 0.00 | 0.00 | 95 | 1016.1 |
| 20260507141545 | 58 | 197 | 0.0 | 0.0 | 0.00 | 0.00 | 0.00 | 96 | 1016.0 |